"America/Chicago Time","Lifetime Energy (kWh)","Power (W)","AC Volts RMS (V) ","AC Amps RMS (mA)","Grid Frequency (Hz)","Inverter Temperature (C)"
"07/07/12 10:51:25","429633.2557","158.9","216.46","733","60.0","36"
"07/07/12 10:56:26","429633.2682","161.2","216.51","743","60.03","36"
"07/07/12 11:01:27","429633.2808","161.9","216.22","747","60.03","36"
"07/07/12 11:06:25","429633.2934","163.2","215.84","756","60.03","36"
"07/07/12 11:11:26","429633.3062","164.7","215.94","757","59.96","36"
"07/07/12 11:16:26","429633.319","165.4","216.98","763","60.03","37"
"07/07/12 11:21:26","429633.3319","165.4","216.81","762","60.0","37"
"07/07/12 11:26:25","429633.3449","168.0","217.62","768","60.0","37"
"07/07/12 11:31:26","429633.3581","169.4","216.77","774","60.03","37"
"07/07/12 11:36:26","429633.3713","169.8","216.48","782","60.03","37"
"07/07/12 11:41:25","429633.3846","170.3","216.44","788","60.0","37"
"07/07/12 11:46:25","429633.3978","172.1","216.96","790","60.03","37"
"07/07/12 11:51:25","429633.4114","173.4","216.44","800","60.03","37"
"07/07/12 11:56:26","429633.4249","173.9","215.95","802","60.03","37"
"07/07/12 12:01:27","429633.4386","174.1","215.84","800","60.03","37"
"07/07/12 12:06:25","429633.452","174.8","216.73","802","60.03","37"
"07/07/12 12:11:27","429633.4658","175.2","216.13","804","60.03","37"
"07/07/12 12:16:25","429633.4794","176.8","216.21","809","60.0","37"
"07/07/12 12:21:25","429633.4932","174.9","216.63","801","60.0","38"
"07/07/12 12:26:26","429633.5068","174.9","217.38","804","60.0","38"
"07/07/12 12:31:26","429633.5206","177.6","216.65","813","60.0","38"
"07/07/12 12:36:25","429633.5344","177.7","216.87","809","60.03","38"
"07/07/12 12:41:26","429633.5483","177.3","217.53","805","60.03","38"
"07/07/12 12:46:26","429633.5621","177.4","216.45","812","60.03","38"
"07/07/12 12:51:27","429633.5759","176.2","216.26","808","60.03","38"
"07/07/12 12:56:25","429633.5895","174.9","216.16","803","60.03","38"
"07/07/12 13:01:27","429633.6032","174.3","216.06","799","60.03","38"
"07/07/12 13:06:26","429633.6168","174.6","216.94","801","60.03","38"
"07/07/12 13:11:27","429633.6304","175.0","216.28","806","60.03","39"
"07/07/12 13:16:25","429633.6439","173.2","216.43","798","60.0","39"
"07/07/12 13:21:25","429633.6575","173.9","216.06","797","60.0","38"
"07/07/12 13:26:27","429633.6711","172.4","216.36","792","60.0","39"
"07/07/12 13:31:27","429633.6845","172.4","216.55","787","60.03","39"
"07/07/12 13:36:25","429633.6978","171.2","215.57","789","60.0","39"
"07/07/12 13:41:26","429633.7112","171.8","216.46","790","60.03","39"
"07/07/12 13:46:27","429633.7245","170.6","216.29","782","60.0","39"
"07/07/12 13:51:25","429633.7376","168.8","216.04","774","60.0","39"
"07/07/12 13:56:26","429633.7507","168.1","216.1","775","60.03","39"
"07/07/12 14:01:26","429633.7638","166.7","216.7","768","60.03","39"
"07/07/12 14:06:27","429633.7768","166.2","216.4","766","60.03","39"
"07/07/12 14:11:25","429633.7896","164.2","216.41","756","60.0","39"
"07/07/12 14:16:27","429633.8023","162.6","216.34","748","60.03","39"
"07/07/12 14:21:25","429633.8149","161.8","215.67","743","60.03","39"
"07/07/12 14:26:26","429633.8275","160.2","215.76","745","60.0","39"
"07/07/12 14:31:27","429633.8399","158.1","216.65","731","60.0","39"
"07/07/12 14:36:25","429633.8521","156.8","216.46","724","60.03","39"
"07/07/12 14:41:25","429633.8643","154.2","216.64","712","60.03","39"
"07/07/12 14:46:26","429633.8762","151.5","216.13","701","60.0","39"
"07/07/12 14:51:26","429633.888","149.5","215.2","698","60.0","39"
"07/07/12 14:56:27","429633.8997","147.4","216.71","683","60.03","39"
"07/07/12 15:01:26","429633.9111","146.8","215.95","677","60.03","39"
"07/07/12 15:06:25","429633.9222","144.0","215.82","669","60.0","39"
"07/07/12 15:11:26","429633.9333","142.1","215.83","661","60.03","39"
"07/07/12 15:16:26","429633.9443","138.4","215.65","646","60.03","40"
"07/07/12 15:21:26","429633.955","136.5","215.02","640","60.03","39"
"07/07/12 15:26:27","429633.9656","135.4","215.36","633","60.03","39"
"07/07/12 15:31:26","429633.976","132.3","214.66","626","60.03","40"
"07/07/12 15:36:26","429633.9862","130.5","213.71","615","60.0","39"
"07/07/12 15:41:27","429633.9963","127.5","215.16","601","60.03","39"
"07/07/12 15:46:26","429634.006","124.3","214.44","586","60.0","39"
"07/07/12 15:51:26","429634.0157","123.0","215.52","584","60.03","39"
"07/07/12 15:56:26","429634.0251","119.4","215.39","561","60.03","39"
"07/07/12 16:01:27","429634.0343","115.6","215.64","548","60.03","39"
"07/07/12 16:06:25","429634.043","112.6","215.05","541","60.03","39"
"07/07/12 16:11:26","429634.0518","110.2","215.16","530","60.03","39"
"07/07/12 16:16:27","429634.0603","108.0","214.39","516","60.03","38"
"07/07/12 16:21:25","429634.0686","105.0","214.7","504","60.03","38"
"07/07/12 16:26:27","429634.0766","101.6","214.91","490","60.0","38"
"07/07/12 16:31:25","429634.0843","98.8","213.58","474","60.03","38"
"07/07/12 16:36:26","429634.0918","94.9","214.13","464","60.03","38"
"07/07/12 16:41:26","429634.0991","91.4","214.12","446","60.07","38"
"07/07/12 16:46:26","429634.1061","88.8","213.96","437","60.0","38"
"07/07/12 16:51:25","429634.1128","85.0","213.37","422","60.03","38"
"07/07/12 16:56:26","429634.1193","81.9","213.31","408","60.03","38"
"07/07/12 17:01:26","429634.1255","78.7","214.24","390","60.0","38"
"07/07/12 17:06:26","429634.1314","74.6","214.53","374","60.0","37"
"07/07/12 17:11:27","429634.1371","71.2","214.01","359","60.0","37"
"07/07/12 17:16:25","429634.1425","67.7","212.91","343","59.96","37"
"07/07/12 17:21:26","429634.1476","64.0","213.61","330","60.0","37"
"07/07/12 17:26:26","429634.1524","60.2","214.09","309","60.03","37"
"07/07/12 17:31:27","429634.1565","58.5","213.15","143","59.96","36"
"07/07/12 17:36:25","429634.1607","48.5","213.21","431","60.03","36"
"07/07/12 17:41:25","429634.1647","47.5","213.47","156","60.0","36"
"07/07/12 17:46:25","429634.1683","50.8","213.11","401","60.07","36"
"07/07/12 17:51:26","429634.1717","47.6","213.57","301","60.07","36"
"07/07/12 17:56:26","429634.1747","32.6","213.42","244","60.07","36"
"07/07/12 18:01:25","429634.1776","30.0","213.33","122","60.0","35"
"07/07/12 18:06:25","429634.1801","35.2","213.52","177","60.03","35"
"07/07/12 18:11:26","429634.1824","31.0","213.79","152","60.03","34"
"07/07/12 18:16:25","429634.1844","26.1","213.27","80","60.03","34"
"07/07/12 18:21:25","429634.1862","21.9","213.4","64","60.03","34"
"07/07/12 18:26:27","429634.1876","22.2","213.67","223","60.03","34"
"07/07/12 18:31:26","429634.1889","13.3","213.14","6","60.03","33"
"07/07/12 18:36:25","429634.19","11.9","213.16","219","60.0","33"
"07/07/12 18:41:26","429634.191","12.8","212.9","37","60.07","33"
"07/07/12 18:46:26","429634.1917","11.4","213.57","0","60.03","32"
"07/07/12 18:51:25","429634.1923","0.0","212.28","0","60.07","32"
"07/07/12 18:56:27","429634.1929","0.0","212.39","0","60.03","32"
"07/07/12 19:01:26","429634.1933","14.4","212.93","0","60.03","32"
"07/07/12 19:11:27","429634.194","0.0","213.15","0","60.03","31"
"07/07/12 19:16:25","429634.1943","0.0","213.21","0","60.03","30"
"07/07/12 19:21:27","429634.1946","0.0","213.09","0","60.03","30"
"07/07/12 19:26:25","429634.1948","0.0","212.95","0","60.0","29"
"07/08/12 06:31:26","429634.1954","7.5","212.93","0","60.03","18"
"07/08/12 06:56:26","429634.1969","13.9","212.48","34","60.03","19"
"07/08/12 07:01:26","429634.1974","14.9","212.56","16","60.0","19"
"07/08/12 07:06:25","429634.1981","10.8","213.06","66","60.03","19"
"07/08/12 07:11:25","429634.1998","35.8","212.87","274","60.0","19"
"07/08/12 07:16:26","429634.2023","33.1","212.65","212","60.0","20"
"07/08/12 07:21:26","429634.2052","41.6","213.85","245","60.03","20"
"07/08/12 07:26:27","429634.2082","46.0","213.42","337","60.0","21"
"07/08/12 07:31:25","429634.2116","41.3","213.7","125","60.03","22"
"07/08/12 07:36:26","429634.2151","42.3","214.94","360","60.03","22"
"07/08/12 07:41:26","429634.2191","43.1","214.55","86","60.03","23"
"07/08/12 07:46:26","429634.2233","42.1","213.94","386","60.03","23"
"07/08/12 07:51:27","429634.2275","40.1","215.11","396","60.0","24"
"07/08/12 07:56:25","429634.2324","65.1","215.5","331","60.03","24"
"07/08/12 08:01:26","429634.2375","68.5","215.36","348","60.03","24"
"07/08/12 08:06:27","429634.243","72.8","215.48","360","59.96","25"
"07/08/12 08:11:26","429634.2488","76.0","215.55","379","60.03","25"
"07/08/12 08:16:26","429634.2549","79.5","214.91","393","60.03","26"
"07/08/12 08:21:49","429634.2616","83.8","214.57","412","60.03","26"
"07/08/12 08:26:26","429634.2678","87.1","214.69","424","60.03","27"
"07/08/12 08:31:26","429634.2747","90.5","215.22","440","60.0","27"
"07/08/12 08:36:25","429634.2819","93.8","215.43","453","60.03","27"
"07/08/12 08:41:26","429634.2892","97.4","215.65","467","60.03","28"
"07/08/12 08:46:27","429634.2969","100.2","215.04","481","60.0","28"
"07/08/12 08:51:26","429634.3048","103.2","215.24","494","60.0","29"
"07/08/12 08:56:26","429634.313","106.4","214.8","510","60.03","29"
"07/08/12 09:01:26","429634.3213","108.7","214.23","521","60.0","30"
"07/08/12 09:06:27","429634.33","111.1","214.35","535","60.03","30"
"07/08/12 09:11:26","429634.3386","114.1","214.59","542","60.0","31"
"07/08/12 09:16:26","429634.3476","116.5","214.97","556","60.07","31"
"07/08/12 09:21:26","429634.3567","119.4","215.37","569","59.96","31"
"07/08/12 09:26:26","429634.3661","121.1","216.03","573","60.03","32"
"07/08/12 09:31:27","429634.3756","122.8","215.34","584","60.03","32"
"07/08/12 09:36:26","429634.3852","125.8","215.61","591","60.03","33"
"07/08/12 09:41:27","429634.3952","127.6","215.18","605","60.03","34"
"07/08/12 09:46:26","429634.4052","129.8","215.29","614","60.0","34"
"07/08/12 09:51:27","429634.4154","132.0","214.13","624","60.0","35"
"07/08/12 09:56:26","429634.4257","133.4","215.4","629","60.03","36"
"07/08/12 10:01:26","429634.4363","138.4","216.71","646","60.03","37"
"07/08/12 10:06:26","429634.4472","140.3","216.45","655","60.0","38"
"07/08/12 10:11:26","429634.4581","142.2","215.66","663","60.03","38"
"07/08/12 10:16:26","429634.4694","146.6","216.52","679","60.03","38"
"07/08/12 10:21:27","429634.4809","147.5","216.3","682","60.0","38"
"07/08/12 10:26:27","429634.4924","147.8","216.77","681","60.0","39"
"07/08/12 10:31:26","429634.5038","149.5","216.69","691","60.03","39"
"07/08/12 10:36:26","429634.5157","153.6","215.87","713","60.0","39"
"07/08/12 10:41:27","429634.5278","156.6","216.9","720","60.03","39"
"07/08/12 10:46:27","429634.5401","158.1","215.99","727","60.03","39"
"07/08/12 10:51:27","429634.5525","160.0","215.6","738","60.03","39"
"07/08/12 10:56:27","429634.565","160.4","216.53","741","60.03","39"
"07/08/12 11:01:26","429634.5774","162.0","217.08","743","60.03","38"
"07/08/12 11:06:26","429634.5902","163.3","216.94","750","60.03","38"
"07/08/12 11:11:25","429634.6028","163.6","215.84","754","60.0","38"
"07/08/12 11:16:27","429634.6157","165.5","216.74","761","60.0","38"
"07/08/12 11:21:25","429634.6286","166.7","217.24","763","60.03","38"
"07/08/12 11:26:26","429634.6416","167.0","217.3","765","60.0","38"
"07/08/12 11:31:26","429634.6546","167.1","217.45","764","60.0","39"
"07/08/12 11:36:26","429634.6677","168.3","216.63","776","60.03","39"
"07/08/12 11:41:27","429634.6809","169.9","216.72","779","60.03","39"
"07/08/12 11:46:26","429634.694","170.9","217.52","782","60.03","39"
"07/08/12 11:51:27","429634.7074","170.1","216.52","780","60.0","39"
"07/08/12 11:56:25","429634.7206","170.8","216.58","782","60.03","39"
"07/08/12 12:01:26","429634.7339","171.7","215.88","792","60.03","39"
"07/08/12 12:06:27","429634.7473","172.5","216.63","792","60.0","39"
"07/08/12 12:11:26","429634.7608","173.1","216.38","797","60.0","39"
"07/08/12 12:16:27","429634.7743","172.7","216.85","792","60.0","39"
"07/08/12 12:21:25","429634.7877","173.7","216.4","797","60.0","40"
"07/08/12 12:26:26","429634.8013","172.9","216.27","792","60.0","40"
"07/08/12 12:31:27","429634.8148","172.9","216.91","791","60.0","40"
"07/08/12 12:36:26","429634.8283","173.2","216.06","799","60.03","40"
"07/08/12 12:41:27","429634.8418","174.3","216.28","800","60.03","39"
"07/08/12 12:46:25","429634.8555","176.1","216.38","808","60.0","39"
"07/08/12 12:51:26","429634.8691","175.4","216.22","806","60.0","39"
"07/08/12 12:56:26","429634.8829","176.3","215.9","804","60.0","39"
"07/08/12 13:01:27","429634.8966","175.0","216.62","803","60.0","38"
"07/08/12 13:06:27","429634.9103","174.1","217.28","796","60.03","38"
"07/08/12 13:11:27","429634.9238","172.7","216.45","797","60.03","38"
"07/08/12 13:16:25","429634.9372","173.5","217.09","793","60.03","38"
"07/08/12 13:21:27","429634.9506","172.4","216.7","788","60.03","39"
"07/08/12 13:26:27","429634.9641","172.2","216.07","792","60.03","38"
"07/08/12 13:31:26","429634.9774","171.6","216.22","792","60.03","38"
"07/08/12 13:36:27","429634.9907","169.0","215.81","781","60.03","39"
"07/08/12 13:41:26","429635.0038","167.3","216.54","769","60.03","39"
"07/08/12 13:46:27","429635.0169","166.6","216.36","766","60.0","39"
"07/08/12 13:51:27","429635.0298","165.9","216.41","763","60.0","40"
"07/08/12 13:56:26","429635.0426","165.3","216.69","756","60.03","40"
"07/08/12 14:01:27","429635.0555","164.8","216.35","760","60.03","40"
"07/08/12 14:06:27","429635.0684","163.6","216.19","754","60.03","39"
"07/08/12 14:11:26","429635.081","163.0","216.66","749","60.03","39"
"07/08/12 14:16:27","429635.0937","160.6","216.32","741","60.03","40"
"07/08/12 14:21:26","429635.1061","159.3","216.11","738","60.0","40"
"07/08/12 14:26:26","429635.1185","158.8","216.32","731","60.03","40"
"07/08/12 14:31:27","429635.1308","155.7","215.77","725","60.0","40"
"07/08/12 14:36:26","429635.1429","155.7","217.27","721","60.03","40"
"07/08/12 14:41:26","429635.155","154.6","217.58","713","60.03","40"
"07/08/12 14:46:27","429635.167","152.2","216.35","705","60.03","39"
"07/08/12 14:51:27","429635.1788","150.8","215.62","703","60.03","39"
"07/08/12 14:56:27","429635.1905","148.7","215.68","689","60.07","39"
"07/08/12 15:01:26","429635.202","147.4","215.8","683","60.0","39"
"07/08/12 15:06:26","429635.2134","145.3","216.3","678","60.03","38"
"07/08/12 15:11:27","429635.2246","142.3","215.85","662","60.0","38"
"07/08/12 15:16:27","429635.2357","140.3","216.01","655","60.03","38"
"07/08/12 15:21:27","429635.2464","137.6","215.71","646","60.0","38"
"07/08/12 15:26:26","429635.2571","135.7","216.24","633","60.03","38"
"07/08/12 15:31:26","429635.2674","133.2","216.15","626","60.03","38"
"07/08/12 15:36:26","429635.2777","130.8","215.87","613","60.03","38"
"07/08/12 15:41:25","429635.2878","128.5","215.9","601","60.0","38"
"07/08/12 15:46:26","429635.2977","125.8","216.45","594","60.0","38"
"07/08/12 15:51:25","429635.3074","123.2","216.72","578","60.03","37"
"07/08/12 15:56:27","429635.317","120.3","216.61","568","60.03","37"
"07/08/12 16:01:27","429635.3262","117.8","216.27","556","59.96","37"
"07/08/12 16:06:27","429635.3353","114.3","216.83","540","60.0","37"
"07/08/12 16:11:27","429635.344","112.2","216.78","532","60.0","36"
"07/08/12 16:16:27","429635.3527","109.1","215.88","520","60.0","36"
"07/08/12 16:21:26","429635.361","106.4","215.87","503","60.03","36"
"07/08/12 16:26:27","429635.3692","102.7","214.53","496","60.0","35"
"07/08/12 16:31:26","429635.377","99.3","214.8","479","60.03","35"
"07/08/12 16:36:26","429635.3846","96.4","215.04","468","60.03","35"
"07/08/12 16:41:26","429635.392","92.8","214.13","453","60.03","35"
"07/08/12 16:46:26","429635.3991","89.7","214.87","438","60.07","34"
"07/08/12 16:51:27","429635.406","86.1","214.01","424","60.0","34"
"07/08/12 16:56:27","429635.4126","82.7","214.01","407","60.03","34"
"07/08/12 17:01:27","429635.4189","79.1","214.49","393","60.0","34"
"07/08/12 17:06:26","429635.4249","76.3","213.91","382","60.0","33"
"07/08/12 17:11:27","429635.4307","72.1","214.61","364","60.03","33"
"07/08/12 17:16:26","429635.4362","68.7","214.86","349","60.03","32"
"07/08/12 17:21:27","429635.4413","65.2","214.14","334","60.03","32"
"07/08/12 17:26:26","429635.4462","61.7","214.47","316","60.0","32"
"07/08/12 17:31:26","429635.4507","36.4","214.89","102","60.03","32"
"07/08/12 17:36:25","429635.4546","55.5","214.06","340","60.07","32"
"07/08/12 17:41:26","429635.4587","57.8","213.73","273","60.03","31"
"07/08/12 17:46:27","429635.4626","53.2","214.0","419","60.03","31"
"07/08/12 17:51:26","429635.4661","48.2","214.14","300","60.07","31"
"07/08/12 17:56:27","429635.4693","44.1","213.55","308","60.0","31"
"07/08/12 18:01:27","429635.472","30.4","214.3","145","60.03","31"
"07/08/12 18:06:26","429635.4747","36.3","214.25","237","60.03","30"
"07/08/12 18:11:26","429635.4771","29.8","213.11","209","60.0","30"
"07/08/12 18:16:27","429635.4791","23.7","213.33","315","60.03","30"
"07/08/12 18:21:26","429635.4809","21.7","213.36","90","60.03","30"
"07/08/12 18:26:27","429635.4826","22.1","212.92","286","60.0","30"
"07/08/12 18:31:27","429635.4847","15.7","213.91","222","60.07","30"
"07/08/12 18:36:27","429635.4866","23.2","214.13","24","60.0","30"
"07/08/12 18:41:27","429635.4879","13.3","213.5","126","60.03","29"
"07/08/12 18:46:27","429635.4889","15.1","213.43","71","60.03","28"
"07/08/12 18:51:26","429635.4896","14.8","213.68","0","60.03","27"
"07/08/12 18:56:26","429635.4902","0.0","212.78","0","60.03","27"
"07/08/12 19:01:27","429635.4906","7.9","213.82","245","60.03","27"
"07/08/12 19:06:26","429635.491","6.4","213.42","117","60.03","26"
"07/08/12 19:11:26","429635.4914","0.0","213.35","0","60.0","26"
"07/08/12 19:16:26","429635.4919","4.4","213.55","0","60.03","26"
"07/08/12 19:21:26","429635.4923","13.8","212.38","43","60.03","25"
"07/08/12 19:26:27","429635.4926","12.4","212.57","3","60.03","25"
"07/08/12 19:31:26","429635.4929","0.0","213.09","0","60.0","25"
"07/08/12 19:36:26","429635.4932","0.0","212.99","114","60.03","25"
"07/09/12 05:51:26","429635.4935","0.0","214.46","0","60.03","16"
"07/09/12 05:56:27","429635.4939","0.0","215.27","0","60.03","17"
"07/09/12 06:01:27","429635.4944","0.0","214.38","0","60.03","17"
"07/09/12 06:06:27","429635.4949","11.7","214.45","0","60.07","17"
"07/09/12 06:11:26","429635.4955","0.0","214.02","0","60.03","18"
"07/09/12 06:16:26","429635.496","0.0","214.41","0","60.0","18"
"07/09/12 06:21:27","429635.4964","0.0","214.37","0","60.03","18"
"07/09/12 06:26:27","429635.4971","4.7","214.82","140","60.03","18"
"07/09/12 06:31:27","429635.4978","14.0","212.1","0","60.03","18"
"07/09/12 06:36:28","429635.4987","16.1","212.49","108","60.03","19"
"07/09/12 06:41:27","429635.4998","12.6","217.35","50","60.03","19"
"07/09/12 06:46:28","429635.5009","13.1","213.45","56","60.03","20"
"07/09/12 06:51:26","429635.5024","11.3","213.22","216","60.03","20"
"07/09/12 06:56:28","429635.5039","11.3","214.04","175","60.0","20"
"07/09/12 07:01:26","429635.5051","13.0","214.84","179","60.0","21"
"07/09/12 07:06:28","429635.5065","29.1","214.54","213","60.0","21"
"07/09/12 07:11:26","429635.5089","27.5","213.57","92","60.03","22"
"07/09/12 07:16:27","429635.5114","43.1","213.41","82","60.0","22"
"07/09/12 07:21:27","429635.5146","42.7","213.9","366","60.0","23"
"07/09/12 07:26:27","429635.518","54.5","214.39","280","60.03","23"
"07/09/12 07:31:28","429635.5217","41.5","214.43","234","60.03","24"
"07/09/12 07:36:28","429635.5244","47.4","213.65","344","60.03","24"
"07/09/12 07:41:27","429635.5281","40.6","213.98","118","60.03","24"
"07/09/12 07:46:28","429635.5315","20.4","212.98","204","60.0","25"
"07/09/12 07:51:26","429635.5337","12.5","212.18","24","60.0","25"
"07/09/12 07:56:27","429635.5382","68.6","213.85","349","60.0","25"
"07/09/12 08:01:26","429635.5434","73.6","213.37","371","60.03","25"
"07/09/12 08:06:26","429635.5485","67.6","214.06","345","60.03","26"
"07/09/12 08:11:26","429635.5531","69.7","214.1","350","60.0","26"
"07/09/12 08:16:27","429635.5573","77.2","215.36","383","60.0","27"
"07/09/12 08:21:26","429635.5638","85.2","216.31","415","60.03","27"
"07/09/12 08:26:28","429635.5705","87.4","215.9","428","60.03","28"
"07/09/12 08:31:27","429635.5775","90.8","215.43","439","60.0","29"
"07/09/12 08:36:27","429635.5847","98.2","216.27","475","60.07","30"
"07/09/12 08:41:27","429635.5928","110.1","214.82","527","60.0","30"
"07/09/12 08:46:26","429635.5986","41.7","213.04","116","60.0","31"
"07/09/12 08:51:28","429635.6037","124.1","215.23","590","60.03","31"
"07/09/12 08:56:27","429635.6121","116.2","215.23","553","60.03","32"
"07/09/12 09:01:27","429635.621","38.2","214.91","126","60.0","32"
"07/09/12 09:06:26","429635.6296","117.2","217.42","553","60.0","32"
"07/09/12 09:11:28","429635.6389","118.1","215.55","556","60.03","33"
"07/09/12 09:16:27","429635.648","119.5","216.02","563","60.0","33"
"07/09/12 09:21:27","429635.6574","120.3","215.88","566","60.03","34"
"07/09/12 09:26:26","429635.6668","122.5","214.99","579","60.03","34"
"07/09/12 09:31:27","429635.6765","123.0","215.35","582","60.03","35"
"07/09/12 09:36:26","429635.686","125.8","216.77","588","60.0","36"
"07/09/12 09:41:27","429635.696","128.2","216.25","604","60.03","36"
"07/09/12 09:46:27","429635.7061","130.8","216.51","616","60.03","37"
"07/09/12 09:51:26","429635.7164","133.8","216.56","621","60.03","37"
"07/09/12 09:56:26","429635.727","136.8","216.77","634","60.03","38"
"07/09/12 10:01:26","429635.7378","140.1","215.8","656","60.07","38"
"07/09/12 10:06:27","429635.7488","141.5","215.8","663","60.0","38"
"07/09/12 10:11:26","429635.7599","145.1","217.36","672","60.0","38"
"07/09/12 10:16:26","429635.7716","166.6","217.65","766","60.03","38"
"07/09/12 10:21:28","429635.7799","60.1","214.58","312","60.0","38"
"07/09/12 10:26:27","429635.7835","26.8","215.24","245","60.0","35"
"07/09/12 10:31:28","429635.7854","20.6","213.76","35","60.03","33"
"07/09/12 10:36:27","429635.787","27.5","214.13","245","60.0","32"
"07/09/12 10:41:26","429635.7897","47.4","214.29","224","60.0","30"
"07/09/12 10:46:27","429635.7997","127.3","214.2","603","60.0","30"
"07/09/12 10:51:27","429635.8118","195.5","215.61","898","60.03","31"
"07/09/12 10:56:27","429635.8211","153.7","217.77","702","60.03","31"
"07/09/12 11:01:26","429635.8299","72.8","215.28","361","60.0","30"
"07/09/12 11:06:26","429635.8389","81.2","215.09","402","60.0","31"
"07/09/12 11:11:27","429635.8456","44.0","214.14","431","60.0","29"
"07/09/12 11:16:28","429635.8486","36.2","214.11","123","60.03","28"
"07/09/12 11:21:26","429635.8523","93.3","215.22","451","60.0","27"
"07/09/12 11:26:26","429635.8641","194.9","217.83","882","60.0","29"
"07/09/12 11:31:27","429635.8784","193.0","217.76","878","60.03","30"
"07/09/12 11:36:28","429635.8933","193.9","216.13","887","60.0","32"
"07/09/12 11:41:26","429635.9025","63.0","213.39","321","60.03","31"
"07/09/12 11:46:27","429635.9077","140.9","214.5","660","60.03","30"
"07/09/12 11:51:27","429635.915","93.4","213.91","456","60.07","29"
"07/09/12 11:56:27","429635.9265","102.7","214.24","495","60.03","30"
"07/09/12 12:01:28","429635.9338","97.0","213.92","469","60.03","29"
"07/09/12 12:06:26","429635.9429","194.6","217.05","884","60.03","30"
"07/09/12 12:11:26","429635.9572","145.5","215.8","679","60.03","31"
"07/09/12 12:16:27","429635.9718","189.3","216.32","863","60.03","32"
"07/09/12 12:21:26","429635.9862","192.1","215.43","878","60.0","32"
"07/09/12 12:26:26","429636.0","194.5","214.75","891","60.0","33"
"07/09/12 12:31:26","429636.0143","183.6","215.63","842","60.03","33"
"07/09/12 12:36:27","429636.0291","194.5","216.36","886","60.03","34"
"07/09/12 12:41:26","429636.0362","37.6","213.41","347","60.0","32"
"07/09/12 12:46:27","429636.0398","48.9","213.57","197","60.03","32"
"07/09/12 12:51:26","429636.046","85.5","214.51","421","60.03","32"
"07/09/12 12:56:27","429636.0583","171.5","216.19","793","60.03","32"
"07/09/12 13:01:28","429636.0715","135.7","215.79","626","60.0","33"
"07/09/12 13:06:26","429636.0819","66.9","214.46","341","60.03","33"
"07/09/12 13:11:28","429636.0892","69.1","212.99","393","60.0","32"